Location: *
(37.4917°N, 71.5558°E)
Time: 02:37:50
(UTC+00:00)

Hubble Space Telescope - Pass Details

Date: 09 April 2020
Orbit: 536 x 540 km, 28.5° (Epoch: 31 May)

Event Time Altitude Azimuth Distance (km) Brightness Sun altitude
Rises 15:45:55 0° 249° (WSW) 2,667 4.8 -23.4°
Reaches altitude 10° 15:48:30 10° 235° (SW) 1,777 3.7 -23.8°
Enters shadow 15:49:58 17° 218° (SW) 1,379 2.9 -24.0°
